Wittman Regional Airport Oshkosh US
ICAO: KOSH
IATA: OSH
Category: Medium
Scheduled Services: No

Elevation: 808 ft
TransAlt. 18000 ft.

Airport Communications:
ATIS:125.9
CHICAGO CNTR:127
CTAF:118.5
GND:121.9
GREEN BAY RDO:122.25
OSHKOSH TWR:118.5
UNICOM:122.95

KOSH Zoom In..

Runways:

(A) RW 04 length 3697 ft width 75 ft
---- / hdg 48

(B) RW 09 length 6179 ft width 150 ft
---- / hdg 94

(C) RW 13 length 3061 ft width 75 ft
---- / hdg 132

(D) RW 18 length 8002 ft width 150 ft
---- / hdg 184

(E) RW 22 length 3697 ft width 75 ft
---- / hdg 228

(F) RW 27 length 6179 ft width 150 ft
---- / hdg 274

(G) RW 31 length 3061 ft width 75 ft
---- / hdg 312

(H) RW 36 length 8002 ft width 150 ft
ILS 110.50 / hdg 4

Location; KOSH
Day. 23 / Time. 09.53 Zulu
* Altimeter: 29.96
* Temperature: 17° c. 62.6°f.
* Wind from: 330° Speed 07 kn.
Dewpoint: 16° c.
Visibility: 10 Statute Miles.
Clouds: Clear (automated report).

KOSH 230953Z AUTO 33007KT 10SM CLR 17/16 A2996 RMK AO2 SLP134 T01720156


Wind From 330°
Speed 07 kn.

 
 
jpsmedia.com for Web Design worldairports.se 2018   terms of use